Wind_Speed
11 10 8 6 6 5 3 4 2 3 2 1 2 1 1 2 2 3 3 1 2 1 2 3 4 5 5 5 8 7 3 2 3 4 2 4 20 25 17 19 23 22 21 18 16 13 11 11 12 13 15 16 16 15 14 13 14 15 14 12 13 15 16 16 17 17 17 17 17 17 18 17 17 17 18 19 18 18 18 18 18 18 18 18 18 18 18 18 18 18 18 18 18 20 21 21 19
10 9 6 4 7 4 1 3 3 3 4 2 2 2 1 2 3 5 5 3 3 3 2 7 9 9 8 9 8 4 3 3 2 3 2 13 24 20 18 22 23 23 21 19 16 14 12 11 12 13 15 18 17 15 14 13 13 14 14 14 14 15 16 16 16 17 17 17 17 17 16 17 17 16 17 18 18 17 17 17 17 17 17 18 18 18 17 17 17 17 18 18 19 21 21 20 18
10 8 5 3 5 4 1 3 2 1 3 1 3 2 1 3 4 6 6 6 7 7 6 8 8 6 6 6 5 3 0 4 2 3 5 19 19 17 23 22 23 22 21 19 16 14 12 12 12 13 17 19 17 15 15 13 12 13 13 14 16 16 15 16 16 16 16 16 16 16 16 16 16 15 16 17 17 17 16 16 17 17 17 17 17 17 17 16 17 17 18 18 18 20 20 20 18
9 7 7 4 3 4 3 3 2 4 1 3 2 4 1 6 6 6 5 6 7 5 4 4 5 2 5 7 4 3 1 2 4 5 6 15 16 22 26 23 24 22 20 19 16 15 13 13 12 14 19 18 15 16 16 13 11 11 11 15 17 16 15 16 16 16 16 16 14 15 16 16 16 15 15 17 17 17 17 16 16 16 16 17 17 17 17 17 17 17 18 17 18 19 19 19 18
7 5 6 5 3 1 2 2 1 3 2 3 3 4 3 7 6 5 4 3 2 5 5 4 3 2 4 5 3 2 2 1 4 7 9 13 21 26 25 24 24 21 21 19 17 15 13 13 13 15 19 18 16 15 14 12 10 11 11 15 18 15 15 15 15 15 16 16 15 15 15 15 15 15 16 16 16 17 16 16 16 16 16 17 16 16 16 17 17 17 17 17 17 18 19 19 19
4 3 6 6 3 1 2 1 1 1 5 5 4 4 5 6 8 7 3 1 3 5 6 4 4 2 3 2 1 4 4 3 5 9 14 19 25 25 24 25 24 22 21 19 17 15 14 13 13 15 17 19 17 14 14 12 10 11 12 15 18 15 14 14 15 15 15 15 15 15 15 15 15 15 15 16 16 15 15 16 16 16 16 16 16 16 15 15 16 16 16 16 17 17 18 19 18
5 2 4 6 2 2 4 1 3 3 3 5 6 6 8 6 7 7 6 4 5 4 5 4 6 6 2 1 2 1 2 5 8 12 19 24 25 23 24 25 23 22 21 19 17 16 15 13 13 14 15 18 17 14 14 12 10 11 11 14 17 15 14 14 14 15 15 15 15 15 15 15 15 15 16 16 15 15 15 15 15 15 15 15 15 15 14 14 14 14 15 15 16 17 18 18 18
6 3 1 4 2 3 4 1 3 4 1 3 5 7 9 8 7 7 6 3 2 1 4 3 5 7 1 2 2 3 1 9 12 18 24 26 24 22 23 24 22 22 21 20 17 16 15 14 14 14 14 16 17 16 15 12 10 11 11 13 15 14 14 14 14 14 15 15 14 14 14 14 13 14 15 15 15 14 14 15 15 15 15 14 14 14 14 13 13 13 14 14 15 17 17 16 16
5 4 1 3 1 2 2 2 3 3 3 1 5 5 7 8 6 7 6 3 4 5 4 5 4 6 1 4 1 4 3 13 18 23 26 25 24 22 23 23 22 22 22 20 18 17 15 14 13 14 14 15 17 18 17 14 11 11 11 12 14 13 12 13 15 14 14 14 14 14 14 13 12 13 14 14 14 13 14 14 14 15 14 14 14 13 13 13 12 12 12 13 15 16 15 15 15
4 4 1 2 2 1 3 2 2 3 4 2 3 6 7 7 4 5 7 5 5 6 4 4 5 6 4 3 1 2 4 17 24 26 27 26 24 23 23 21 20 22 23 21 18 17 16 14 13 13 14 15 16 18 19 16 13 12 11 11 11 11 10 12 14 14 13 13 14 14 14 13 13 13 14 13 13 13 13 13 14 14 14 14 13 13 12 12 12 11 12 14 15 14 15 14 14
3 3 2 4 3 1 3 3 3 4 4 2 2 5 7 6 5 4 6 5 3 6 4 2 6 5 5 1 2 1 7 20 28 29 28 26 25 24 22 20 19 19 21 21 19 17 16 14 13 13 14 14 15 17 18 16 15 14 13 12 11 10 10 10 12 13 13 13 13 14 13 13 14 14 14 13 12 12 12 12 13 13 13 12 12 12 12 11 11 11 12 14 14 13 14 14 13
3 3 4 4 2 3 4 3 4 4 4 1 3 5 4 6 7 5 7 6 3 6 4 2 5 5 5 1 3 2 8 19 27 30 29 27 27 24 21 20 19 17 18 20 19 18 17 15 14 13 13 14 14 15 16 15 15 15 15 13 11 10 10 10 11 13 13 13 13 13 13 13 14 13 13 12 10 11 12 12 12 13 13 12 12 11 11 11 11 11 13 15 14 13 13 13 13
3 1 5 2 3 3 3 2 3 1 3 3 5 3 5 6 7 8 8 7 6 7 3 5 8 5 4 1 3 3 7 18 25 30 28 27 27 25 22 21 20 19 18 19 19 18 17 16 14 13 13 13 13 13 13 13 13 13 13 12 10 9 9 9 11 13 14 13 12 12 12 13 13 12 12 11 9 11 12 12 12 12 12 12 12 12 11 11 11 11 13 14 14 14 14 13 12
2 3 5 1 0 3 4 1 1 3 4 5 3 3 4 3 6 9 8 8 6 6 4 6 10 6 3 1 1 4 10 19 25 28 25 23 27 26 24 22 21 21 19 19 19 18 18 16 15 14 14 13 13 13 12 12 11 12 11 10 9 8 8 9 10 13 14 13 13 11 12 14 13 12 11 9 8 10 10 11 11 11 11 11 11 11 11 11 11 12 13 13 13 13 13 12 11
2 2 4 2 2 0 3 2 3 4 5 5 3 3 3 1 4 7 8 10 5 4 4 5 6 3 4 6 4 8 17 23 24 25 21 21 27 27 25 23 21 20 20 20 19 18 18 17 15 15 14 14 13 13 12 11 11 11 11 10 9 8 8 8 9 11 13 13 13 12 12 13 12 11 10 9 8 9 9 9 9 9 9 9 10 10 10 11 12 12 12 11 11 11 11 11 10
3 3 4 2 1 2 3 2 3 3 5 5 3 4 5 2 3 5 4 6 4 1 3 3 0 0 8 9 8 20 27 25 23 22 20 23 27 27 26 24 22 21 20 20 20 19 18 18 17 15 15 14 14 13 12 12 11 11 11 10 10 9 8 8 9 10 11 12 11 12 12 12 11 10 10 9 8 8 7 6 7 7 7 8 9 9 10 11 12 11 11 10 10 9 9 9 9
3 4 3 1 1 3 3 4 4 3 5 5 4 3 6 1 0 1 2 4 6 2 4 2 3 2 7 4 9 30 32 25 24 22 22 25 27 25 25 25 24 23 21 21 20 20 19 19 18 16 15 15 14 14 13 13 12 12 11 11 10 10 9 9 9 10 11 12 11 11 11 11 10 9 9 9 8 7 5 5 5 6 7 7 7 8 9 9 10 10 9 9 8 8 7 7 7
3 3 2 2 3 4 4 6 6 4 5 6 6 5 8 6 3 1 3 6 4 5 5 3 4 6 1 2 16 34 32 26 26 24 25 26 26 23 23 25 26 26 24 22 20 21 21 20 19 18 17 16 15 15 15 14 13 13 12 12 11 10 10 9 9 10 11 12 12 12 11 11 9 9 9 8 7 6 5 4 4 6 6 6 6 6 7 8 9 9 8 8 8 8 7 7 6
2 3 1 4 5 5 4 6 6 4 7 8 6 5 7 7 6 4 4 2 3 6 4 4 5 6 5 9 23 32 29 27 26 26 26 26 27 25 24 25 26 27 26 24 22 22 22 21 20 19 19 17 16 16 15 15 15 14 13 12 12 11 10 10 9 9 10 11 12 13 12 11 9 8 8 8 6 5 4 4 4 4 4 5 5 5 6 7 7 7 7 7 8 8 8 8 6
1 3 1 5 5 4 4 5 6 6 5 11 8 5 6 6 5 3 5 6 5 6 4 2 2 2 6 10 21 27 26 24 24 25 24 25 28 27 27 27 27 29 28 25 23 22 22 22 21 20 20 19 18 17 16 16 16 15 14 13 12 12 11 10 10 9 10 10 11 13 12 11 9 8 8 7 6 6 5 5 4 3 3 3 3 5 5 5 6 6 6 6 6 6 7 7 7
1 3 4 6 3 3 5 2 3 5 4 10 9 5 6 6 2 3 8 7 4 7 8 8 9 10 9 9 17 23 23 21 21 21 21 23 25 26 28 29 29 30 28 25 23 22 22 22 21 20 20 20 19 19 18 18 17 16 15 14 13 12 12 11 11 10 10 11 12 12 12 11 10 9 7 6 6 6 6 5 5 4 3 2 3 5 5 5 4 4 4 3 3 3 4 5 6
1 4 6 6 2 4 6 4 3 1 0 5 9 7 6 4 1 4 11 9 6 7 8 10 13 15 15 15 18 20 20 21 20 20 21 22 23 24 25 26 26 26 26 26 25 24 23 22 21 20 21 21 20 20 19 18 18 18 17 16 15 14 13 12 12 12 12 12 12 12 12 11 11 9 7 6 6 6 6 6 5 5 4 3 4 4 5 5 4 3 3 2 1 1 1 2 3
2 5 3 5 4 4 5 5 4 3 4 7 8 7 5 6 3 5 11 9 6 6 8 10 13 18 20 20 19 17 17 20 21 23 24 25 25 25 26 26 26 27 28 27 26 24 24 23 21 20 21 21 21 20 19 19 19 18 17 17 16 16 15 14 13 13 13 14 13 13 13 12 11 11 9 8 7 7 7 7 5 5 5 5 5 4 4 3 3 3 3 3 3 3 3 3 3
4 5 4 5 5 5 5 4 4 4 5 7 3 5 8 9 5 4 8 8 7 5 6 12 14 18 20 17 16 16 19 22 25 27 28 28 29 28 28 28 29 30 29 29 28 26 25 24 23 22 21 21 22 21 20 19 19 18 18 18 17 17 16 16 15 14 15 16 15 14 13 12 12 11 10 10 9 8 8 8 7 5 5 6 6 5 4 4 3 3 3 5 5 6 5 5 5
5 6 5 3 3 4 4 4 5 5 2 2 2 6 7 8 4 4 8 8 6 2 6 12 13 15 15 14 14 15 17 21 24 25 26 26 27 26 26 27 28 29 30 30 30 28 26 25 25 25 23 23 22 22 21 20 20 19 19 19 18 18 17 16 15 15 15 17 17 16 14 14 13 12 11 11 11 10 9 10 10 7 6 6 7 7 6 5 5 5 5 6 7 7 7 7 7
4 5 5 3 3 4 2 3 5 4 1 1 5 5 2 3 1 3 8 7 3 3 8 11 13 13 12 12 13 15 15 19 22 24 26 25 24 25 26 27 28 30 31 30 31 31 29 27 27 28 26 25 24 23 23 22 21 21 21 21 20 19 18 17 15 16 15 16 17 16 16 15 14 12 11 12 13 12 9 10 11 10 8 8 9 9 8 7 7 8 8 8 8 9 8 8 9
6 6 5 3 2 3 2 1 4 3 1 2 7 5 4 3 1 3 7 6 4 7 8 10 13 13 13 11 12 16 17 20 25 24 23 22 23 26 27 28 29 30 31 30 30 31 32 29 28 30 29 27 26 25 25 24 23 22 22 21 21 20 18 17 17 16 16 16 15 15 16 16 15 14 12 12 13 12 10 11 11 11 10 10 10 10 10 10 10 10 10 10 10 10 9 9 10
8 6 3 3 4 3 1 3 3 1 0 3 6 2 4 4 0 6 7 6 6 9 9 10 12 12 12 12 11 13 16 20 23 22 22 24 27 29 30 31 31 30 31 32 30 30 33 32 29 30 30 29 28 28 27 26 25 24 22 21 22 20 18 18 18 17 17 17 16 15 16 16 17 16 15 13 13 13 12 11 11 12 12 11 12 12 12 12 12 13 13 13 13 12 11 11 11
6 3 4 5 5 3 4 3 2 2 1 3 5 1 4 3 6 8 4 6 6 8 10 9 10 10 10 11 9 10 15 18 19 21 25 29 31 32 32 34 33 32 32 32 30 30 32 33 32 31 30 30 30 30 28 28 27 25 24 23 22 21 20 21 20 19 19 18 18 18 17 17 17 17 16 15 14 14 14 14 13 13 12 12 13 13 13 13 14 14 14 15 15 14 14 14 14
5 3 4 3 4 4 6 2 3 4 2 1 4 3 5 8 11 8 2 7 7 7 8 8 8 7 7 8 8 9 13 16 19 25 29 30 32 33 34 34 35 35 33 33 33 32 32 32 33 33 31 32 31 31 30 29 28 27 26 24 23 22 22 23 22 21 20 19 19 20 20 19 18 17 17 17 17 15 15 17 17 15 13 12 13 14 14 14 15 16 16 16 17 16 16 16 16
3 2 3 1 1 4 6 2 5 5 2 3 4 4 5 8 11 7 4 8 9 8 8 8 7 7 7 8 8 9 11 18 23 27 30 30 31 32 34 34 34 35 34 34 35 34 33 33 33 34 34 33 33 32 31 30 29 28 27 25 25 24 23 23 23 23 22 21 21 21 21 21 19 19 18 18 19 18 16 16 18 18 16 14 14 14 14 15 16 16 17 17 18 18 18 18 18
1 3 3 1 3 4 7 2 7 6 1 3 5 4 5 7 9 6 5 8 9 10 9 8 8 8 8 7 8 8 9 16 22 24 28 30 31 32 34 35 34 35 36 36 37 35 35 34 33 34 35 35 35 34 33 31 29 29 28 27 26 25 25 25 24 24 23 23 23 23 23 22 21 20 19 18 18 20 20 17 16 17 18 17 16 15 14 15 16 16 16 18 19 20 20 20 20
2 2 3 1 3 3 4 2 4 4 2 1 3 3 4 5 6 6 3 9 9 9 9 9 9 8 8 7 8 8 7 10 15 21 28 30 32 33 34 35 35 35 36 37 37 36 36 36 36 35 35 35 35 34 34 33 31 29 29 28 27 27 26 27 26 25 25 24 24 24 24 23 22 21 21 20 18 19 20 20 17 14 16 18 18 17 16 16 17 17 17 19 20 21 20 20 20
3 1 3 3 3 3 2 4 4 3 4 3 4 4 6 6 5 6 1 7 8 9 9 9 9 8 8 7 7 7 8 8 12 21 29 31 32 34 34 35 36 35 34 35 35 37 37 37 37 36 35 34 34 34 33 33 31 30 30 30 29 28 28 27 27 26 26 26 26 25 25 24 23 21 21 21 20 19 19 19 18 16 15 16 16 17 16 17 19 19 20 21 21 21 21 21 22
3 2 3 3 2 3 3 4 4 5 3 4 6 5 9 10 7 5 3 3 7 9 8 7 8 8 7 7 7 8 9 9 14 23 29 31 32 33 34 34 35 35 35 34 34 35 37 37 37 37 36 35 35 34 33 32 31 30 30 29 29 29 29 28 27 27 27 26 26 26 26 25 24 22 22 22 21 21 20 19 18 18 18 17 17 19 19 19 19 19 21 22 22 22 22 23 22
6 4 4 4 4 3 4 5 5 6 5 5 7 6 10 12 9 8 6 2 5 8 6 6 7 7 7 7 8 8 9 11 17 23 27 29 32 33 34 34 34 36 36 36 34 33 35 37 37 37 37 36 36 35 34 33 31 31 31 30 30 31 30 30 29 28 27 27 26 25 25 25 25 24 23 23 23 22 22 21 19 18 18 19 21 22 22 22 21 20 21 22 23 24 24 24 21
3 2 3 4 5 4 4 4 5 3 5 6 8 8 10 10 9 9 5 1 4 8 7 8 7 6 7 8 9 10 10 11 14 19 24 28 31 32 33 33 33 34 35 36 35 34 35 36 38 38 38 38 37 37 36 35 34 33 32 33 34 33 31 30 30 30 28 27 25 25 25 25 25 24 23 23 23 22 22 22 22 20 20 21 23 24 24 25 25 23 21 21 23 23 23 23 20
4 3 4 4 5 5 5 3 4 0 4 5 4 6 10 10 10 9 3 2 7 10 9 9 9 8 8 8 10 10 9 8 7 13 20 24 27 30 32 32 33 33 35 37 37 37 36 36 38 39 39 39 39 38 38 38 37 36 35 35 36 35 33 32 32 31 29 27 25 24 24 24 24 23 22 22 22 22 22 21 21 21 20 21 22 23 23 25 24 21 20 22 24 24 24 23 19
5 4 2 4 3 3 4 3 3 1 3 4 1 4 9 10 10 9 4 6 8 10 10 10 10 9 9 10 10 9 9 8 7 10 16 22 26 29 31 32 34 35 36 37 38 39 37 36 37 38 38 39 39 39 39 39 39 38 37 35 35 34 33 33 32 30 28 27 25 23 23 23 22 22 21 20 20 21 21 21 21 21 19 17 18 20 20 21 20 19 20 23 25 24 22 21 19
5 3 2 4 2 2 4 4 2 1 1 2 1 1 6 7 7 8 8 9 9 9 9 9 8 10 11 11 9 10 11 11 10 10 12 18 23 26 29 33 35 35 35 36 37 38 38 38 38 38 38 39 39 39 39 39 38 36 35 34 32 31 31 30 29 29 29 28 27 25 23 22 22 21 19 19 19 20 20 21 20 21 19 16 18 21 22 22 21 19 18 22 24 21 19 20 20
5 5 6 4 3 5 4 2 2 2 2 1 3 4 6 5 5 9 7 6 8 7 7 9 9 10 11 8 8 10 12 11 11 12 11 14 19 25 30 33 33 34 35 37 38 38 39 40 40 40 39 40 40 40 39 38 36 35 33 31 29 28 28 27 27 29 30 29 28 27 24 22 21 21 20 19 19 19 20 20 19 20 20 17 19 23 23 23 22 19 17 18 19 18 19 21 21
5 6 9 8 7 5 2 4 4 4 3 3 1 1 6 4 4 9 6 3 7 6 6 10 11 11 10 8 10 10 9 9 10 10 10 13 19 25 28 31 31 32 35 38 39 40 39 40 41 41 40 40 40 40 40 38 37 36 34 32 30 29 28 29 30 31 30 29 28 25 23 21 21 21 20 18 18 17 18 19 19 20 20 18 16 17 19 21 22 21 17 15 17 19 21 21 21
5 6 9 8 5 5 5 6 4 2 3 3 2 4 5 6 4 7 4 5 9 6 6 11 11 10 10 10 11 9 8 9 8 8 8 11 17 20 24 29 31 34 37 38 38 39 39 39 39 40 40 40 40 40 39 39 37 36 36 35 35 33 31 31 31 29 27 27 25 23 21 21 20 19 18 16 16 16 15 16 17 18 17 15 14 15 19 21 21 21 18 15 16 18 19 20 21
5 5 6 8 6 7 7 7 4 2 3 3 4 3 3 5 5 6 3 4 9 8 8 11 10 11 11 11 11 9 10 10 8 9 9 11 16 20 24 30 34 36 37 37 37 37 38 38 38 39 39 39 39 39 39 39 38 38 37 36 35 34 33 30 27 25 24 23 22 21 20 19 19 17 15 15 14 14 13 14 15 16 15 14 15 16 16 16 13 12 11 11 13 14 16 18 20
6 5 6 7 6 6 6 6 3 1 1 3 4 1 2 5 6 6 4 2 7 8 9 10 10 12 12 12 11 11 11 9 8 9 9 12 17 23 26 29 33 35 35 34 36 37 37 37 36 36 37 38 38 38 38 39 39 38 37 35 34 33 31 27 24 22 21 20 19 19 18 18 17 15 14 14 13 13 12 12 12 12 12 10 10 10 8 6 5 5 5 8 12 13 12 14 17
4 5 6 4 4 5 4 5 3 2 1 4 6 2 2 5 6 4 3 2 6 8 9 9 9 10 10 10 11 10 8 7 7 7 9 13 18 22 23 23 26 29 30 31 32 33 33 34 34 34 36 37 38 38 38 39 39 38 36 36 34 31 28 25 22 19 18 18 18 18 17 17 15 14 13 12 12 11 11 12 11 11 12 11 10 10 9 7 7 9 9 9 10 8 7 8 10
5 6 6 6 5 4 3 2 3 1 3 6 7 4 2 4 6 4 4 4 6 6 7 8 8 8 7 8 8 8 7 6 6 6 7 10 12 15 17 20 22 24 26 27 28 29 31 32 33 34 35 36 37 37 38 38 38 38 37 35 34 30 27 25 23 20 19 19 18 18 17 16 15 14 14 12 11 12 12 12 13 13 14 14 13 13 14 15 14 14 13 11 9 7 7 7 6
7 4 4 4 3 3 3 4 2 2 5 6 5 3 4 4 5 5 6 6 6 7 7 9 9 9 7 7 7 7 6 6 6 6 5 5 6 9 13 17 19 20 23 25 26 27 28 30 32 33 34 34 35 36 36 37 37 37 36 34 32 30 28 27 25 23 21 20 19 18 17 17 16 16 15 14 13 14 14 12 12 13 15 16 16 16 16 16 14 12 9 8 8 8 8 7 6
4 4 5 4 1 1 0 3 1 3 5 4 3 2 3 5 7 9 9 11 10 9 8 9 8 8 8 6 6 5 5 5 5 6 5 5 5 8 12 15 16 18 21 23 25 26 26 28 29 31 33 33 33 34 35 35 36 35 34 32 31 30 29 28 26 23 21 20 19 19 18 18 17 17 17 16 14 12 11 8 6 6 7 9 11 11 10 8 6 4 3 4 4 5 5 5 5
4 6 5 5 2 2 3 4 1 3 5 3 2 2 3 3 6 11 14 15 12 6 7 9 9 8 8 6 5 5 5 5 5 5 5 5 6 9 12 14 16 17 19 20 22 24 25 26 27 29 31 31 31 32 33 33 34 33 32 30 30 29 28 26 24 22 20 19 19 18 18 17 16 16 16 14 12 10 9 7 5 4 3 2 2 2 3 3 2 2 1 1 2 3 3 4 5
4 5 6 5 5 4 4 3 3 4 3 2 2 2 3 3 4 8 10 11 9 5 5 7 7 7 6 4 4 5 6 5 4 5 5 6 8 11 12 14 15 17 18 19 20 22 23 25 26 27 28 29 29 30 30 31 31 30 29 29 28 27 26 24 22 21 20 19 18 17 16 15 14 14 13 12 12 12 10 7 5 3 2 2 3 3 4 4 4 2 1 1 0 1 2 2 3
3 3 5 5 5 5 3 3 5 4 1 2 2 2 4 4 6 9 6 6 8 6 5 5 6 6 3 3 6 5 5 5 4 5 5 7 9 11 12 14 16 17 18 19 20 21 23 24 25 26 27 27 28 28 28 28 28 28 26 26 24 23 23 23 22 20 19 19 18 17 17 15 14 13 13 12 12 11 9 7 5 5 3 3 3 3 3 5 4 3 4 4 4 4 4 5 4
2 2 4 5 4 7 4 2 1 3 1 3 2 3 5 3 7 9 5 6 8 6 6 5 6 5 2 5 6 5 6 5 5 5 5 6 8 11 13 14 16 17 18 19 20 21 22 23 24 24 25 26 26 27 26 26 26 25 23 22 22 23 23 23 23 21 20 18 17 18 17 16 15 14 13 13 12 10 9 8 7 6 5 5 5 4 4 4 4 4 7 8 8 8 7 6 6
4 4 6 3 3 3 3 2 2 2 3 4 0 4 4 1 3 6 7 7 8 8 8 7 6 5 5 7 6 6 6 5 5 5 4 5 7 9 11 12 14 15 16 17 18 19 21 22 23 24 24 25 25 25 24 24 24 23 23 23 23 23 23 23 22 21 19 18 18 18 18 17 16 15 13 12 11 11 10 9 8 7 7 6 6 5 5 5 5 6 7 8 8 7 6 6 6
3 4 3 3 3 2 2 3 2 1 4 4 3 4 4 4 4 4 5 6 8 8 7 6 7 7 7 7 7 7 6 5 5 4 4 4 6 9 11 11 12 13 14 15 16 17 19 20 22 23 24 24 23 23 23 23 23 24 24 24 24 23 22 22 21 20 20 19 19 19 19 18 16 14 13 13 12 12 11 11 10 10 9 8 7 7 7 7 8 8 9 8 8 8 8 8 9
2 0 0 1 2 4 3 3 3 3 4 4 4 4 4 6 6 6 8 9 9 10 7 6 8 9 8 8 8 7 6 5 5 5 4 4 6 9 11 12 13 14 14 15 16 17 18 20 21 22 22 22 23 23 24 24 24 24 25 24 24 22 22 21 21 21 20 20 20 20 19 17 16 15 14 14 15 15 15 15 14 14 13 13 12 11 10 9 10 10 10 10 10 10 10 10 10
2 3 4 2 1 2 2 1 3 4 3 4 3 4 6 6 5 9 11 11 11 10 7 6 8 9 8 8 7 7 6 6 5 5 4 4 6 8 10 11 12 13 13 15 17 18 19 20 21 22 22 22 23 23 24 24 24 24 24 23 22 22 22 22 22 21 21 21 20 20 18 17 17 16 16 17 18 18 18 18 18 17 16 15 14 13 12 11 11 10 10 10 10 9 10 10 10
4 4 6 7 3 4 4 4 1 2 3 5 4 5 8 6 5 9 10 10 9 7 5 6 8 8 7 7 7 7 7 7 6 5 5 5 8 10 10 11 11 12 13 14 16 18 19 20 21 22 22 23 23 23 23 23 23 23 23 23 22 23 23 23 22 21 21 21 20 19 19 19 19 19 19 20 20 20 20 18 18 17 16 15 14 13 12 11 10 10 9 9 9 9 9 10 10
Wind_Direction
347 349 346 358 5 3 12 66 56 330 79 78 293 126 177 194 149 123 113 58 64 340 303 64 48 69 91 111 132 134 103 161 175 144 210 184 147 153 160 158 157 153 151 148 145 137 131 125 121 130 131 124 118 113 112 109 111 117 116 114 108 104 100 97 98 98 98 98 97 96 94 92 90 92 92 90 87 87 87 85 85 84 83 83 83 84 85 86 87 91 96 94 94 96 94 92 89
350 353 356 7 17 32 287 66 82 332 37 41 295 152 189 352 85 144 157 146 126 171 155 89 80 78 94 119 125 103 42 334 170 144 116 138 142 151 160 159 159 155 151 147 141 136 132 125 119 126 130 125 119 112 109 110 112 114 117 117 114 109 103 101 101 99 100 100 100 97 95 94 90 90 91 89 88 89 88 86 86 85 85 84 83 84 84 86 87 89 96 96 94 97 94 91 90
354 356 13 27 28 56 43 37 86 40 50 227 270 261 142 97 148 188 172 146 153 155 130 96 87 85 92 89 64 75 13 323 70 81 114 138 142 152 161 162 160 155 149 145 139 136 133 125 120 123 130 126 118 114 112 115 118 115 117 120 117 111 105 104 102 101 103 104 103 98 97 94 91 91 90 87 89 90 89 88 87 86 85 85 83 82 83 85 88 89 96 97 96 96 92 90 90
357 1 19 49 45 40 53 43 125 117 121 211 219 285 177 145 176 202 175 155 168 139 111 84 63 31 84 94 78 77 116 325 90 99 132 149 152 156 162 162 159 154 147 143 140 137 131 124 120 123 130 126 118 118 115 114 121 117 117 122 117 111 108 105 103 103 104 106 104 100 97 95 95 95 93 90 92 92 90 89 88 87 85 86 86 83 84 85 87 91 96 97 98 97 90 88 89
358 6 27 62 78 33 76 66 92 92 226 191 150 262 210 163 169 187 200 195 182 107 103 91 71 334 54 99 129 113 154 139 110 121 131 150 157 158 161 162 158 153 148 144 140 137 130 124 119 124 130 127 121 117 114 116 120 116 119 124 117 111 110 107 106 105 105 105 103 102 99 98 99 97 95 91 91 92 92 91 91 91 89 88 88 86 85 86 88 92 97 100 100 96 90 88 90
9 34 42 60 95 152 97 31 293 293 242 170 145 219 199 179 168 167 168 55 28 84 102 91 116 122 56 12 80 133 178 143 121 138 138 148 158 161 161 160 158 153 149 144 142 137 129 125 121 127 133 132 125 117 117 120 120 116 120 124 118 114 113 111 110 108 109 108 105 105 101 101 102 98 96 93 91 89 90 90 91 94 92 91 89 90 89 88 90 92 98 103 102 94 90 90 90
24 38 36 54 51 43 101 193 232 248 244 169 163 175 181 196 178 149 136 111 36 38 68 95 131 109 74 320 63 58 217 166 141 148 151 152 158 161 161 160 158 154 150 146 144 138 132 128 126 129 135 137 131 123 122 121 121 119 121 125 122 118 116 114 112 112 111 110 109 108 106 106 104 98 94 96 95 90 89 88 89 90 90 90 88 89 89 90 92 95 101 105 103 96 92 91 90
29 41 38 75 40 16 98 228 249 223 251 166 172 172 177 186 178 149 145 137 105 74 68 122 131 97 348 26 95 313 190 162 148 150 154 154 157 159 161 161 157 154 152 149 145 141 136 132 129 130 135 138 138 134 126 122 121 116 119 126 124 119 118 115 113 114 114 113 112 110 111 111 104 97 95 98 99 95 93 91 90 89 88 90 90 89 89 92 95 97 104 109 108 101 95 92 90
37 40 33 80 90 8 46 311 282 244 271 178 164 181 180 177 178 148 138 125 131 129 109 168 136 109 162 43 85 294 118 152 149 151 155 155 158 158 162 164 158 155 154 152 149 145 139 135 132 131 134 137 142 142 132 125 121 115 121 126 123 122 122 120 117 116 116 117 117 113 112 110 101 96 99 100 100 100 98 96 94 93 92 93 93 92 92 93 96 100 106 117 117 107 99 94 91
35 29 92 87 86 12 332 294 275 266 261 233 194 188 175 177 177 143 134 140 139 120 130 153 91 105 135 83 219 294 129 150 148 151 157 157 158 159 164 166 160 155 156 155 152 148 141 139 136 134 135 135 140 144 138 131 126 120 123 126 123 123 122 122 123 120 118 119 120 115 111 111 106 104 106 104 103 101 100 101 99 99 97 97 97 95 96 94 96 102 109 122 126 116 106 98 94
35 352 91 80 70 137 243 247 271 267 275 325 277 211 180 173 146 126 118 126 128 116 145 108 86 113 105 80 256 248 157 152 151 154 158 159 160 163 165 167 164 158 159 159 154 150 144 142 143 139 137 136 138 143 142 138 137 133 131 133 131 131 127 126 130 128 123 120 122 117 114 119 119 117 114 112 109 102 100 102 100 101 99 100 102 100 99 98 98 102 112 126 132 125 116 106 101
77 333 63 90 148 190 202 217 260 266 296 329 202 233 190 163 133 138 134 134 139 116 155 156 138 142 88 29 267 249 171 158 157 157 158 162 164 167 167 168 168 164 164 162 158 154 149 147 147 145 141 139 139 143 145 145 146 145 145 144 143 140 132 125 127 132 127 123 129 127 127 133 129 124 123 123 116 104 102 101 102 101 99 99 101 104 103 101 101 105 118 129 134 132 125 116 109
116 128 87 135 191 162 167 205 260 283 299 239 194 207 152 158 151 159 146 134 142 125 186 184 144 119 89 206 279 283 192 167 160 158 160 164 167 169 170 170 170 168 168 167 163 159 155 152 151 150 147 144 143 145 146 148 149 150 152 152 147 140 131 120 120 131 135 134 140 138 138 140 133 130 131 129 119 110 108 104 103 102 101 101 103 107 108 108 109 110 120 129 133 134 131 125 119
133 145 112 169 239 137 157 171 240 164 237 244 215 177 149 177 169 162 134 126 162 151 158 157 137 113 92 177 292 277 201 172 161 161 161 164 171 171 171 171 171 170 169 171 170 166 160 157 156 154 153 151 149 148 148 149 151 152 153 153 149 143 134 119 116 133 144 144 145 142 140 142 140 139 140 134 123 115 110 102 100 103 105 106 109 111 111 114 118 118 122 127 131 134 136 135 130
136 136 92 112 327 322 188 193 177 168 224 235 205 152 120 350 154 157 143 143 197 202 124 118 138 138 161 169 196 217 191 173 163 162 157 162 171 170 172 170 170 171 170 174 174 173 167 163 163 160 159 157 155 153 151 152 153 156 154 154 153 147 140 128 121 136 149 147 146 147 144 148 149 148 148 146 136 123 111 99 93 99 106 106 107 109 111 117 122 124 125 129 132 135 139 142 143
114 104 72 84 286 264 227 193 124 144 238 231 214 135 102 5 122 158 201 149 152 302 70 103 173 164 167 174 195 189 181 170 165 162 153 159 166 165 169 168 169 170 171 177 177 178 174 170 170 166 165 161 160 159 157 159 158 159 158 156 154 149 145 140 134 138 152 153 151 152 151 153 152 151 153 152 146 135 120 101 91 97 105 107 104 105 109 117 123 128 131 135 137 139 142 146 152
73 80 69 327 198 212 222 171 157 177 227 233 239 170 126 128 67 169 306 83 117 80 45 85 336 20 171 221 186 173 173 170 166 160 151 156 160 159 163 165 167 169 172 179 181 182 181 179 177 173 171 167 166 165 165 166 165 165 162 158 156 154 150 145 145 145 154 161 161 161 160 159 156 156 157 157 154 146 134 112 102 102 105 106 104 104 106 111 120 126 133 138 142 141 143 150 158
57 80 128 238 192 204 193 176 198 178 184 205 215 183 141 155 188 176 47 51 90 84 39 28 7 18 121 191 157 163 169 169 167 160 151 154 159 159 162 165 167 170 173 178 184 187 186 185 183 180 177 175 174 172 172 171 172 171 167 164 160 159 157 151 149 151 157 162 166 168 167 166 165 166 167 168 164 158 149 133 121 111 107 109 111 111 108 110 116 123 128 133 135 131 130 141 156
99 124 155 231 201 218 205 180 206 195 178 182 194 186 158 166 171 146 126 155 141 105 37 11 38 34 67 125 147 159 169 168 168 164 156 158 164 165 166 169 170 173 175 178 183 188 190 190 188 187 184 181 181 179 178 178 179 177 174 172 168 167 164 161 157 156 161 162 165 168 169 171 172 174 176 178 178 176 173 168 158 132 118 117 123 127 121 119 120 123 126 126 128 123 118 121 134
183 149 229 243 214 251 249 185 207 235 193 166 182 185 166 179 169 140 141 168 181 156 158 110 117 139 118 134 149 160 170 170 171 169 165 165 169 170 171 173 176 177 179 180 182 185 191 192 192 194 190 187 186 185 186 185 185 183 182 179 177 176 173 171 169 165 165 163 163 164 167 169 173 179 183 188 194 197 199 200 199 186 153 137 147 153 145 138 133 133 134 131 131 125 119 117 123
217 164 206 234 213 287 272 253 244 260 226 173 161 138 167 193 181 151 139 144 221 215 195 175 171 167 153 154 157 164 172 174 177 176 174 172 173 175 176 178 180 181 181 182 184 186 191 193 193 194 195 194 190 190 191 190 190 189 188 187 186 185 183 181 178 177 174 171 169 167 169 169 171 177 186 197 203 212 217 217 222 225 219 203 177 169 165 159 153 153 152 144 141 140 134 131 135
270 227 213 231 247 282 278 327 330 327 161 167 144 149 177 166 149 170 157 166 222 218 204 184 167 164 164 164 164 169 176 179 183 184 183 180 179 180 180 181 181 181 181 184 189 191 194 194 194 194 196 199 196 194 193 193 194 194 193 191 192 192 193 192 188 186 184 183 180 179 180 179 179 180 192 209 216 225 228 229 234 234 233 208 174 172 176 169 169 182 192 196 206 216 195 179 176
267 266 241 238 216 241 292 341 339 56 129 173 165 173 146 132 186 190 177 196 227 214 190 175 168 168 165 161 164 170 178 184 188 190 189 187 185 184 184 184 184 182 183 189 192 195 199 197 198 198 196 200 203 198 196 197 198 199 198 196 197 196 197 198 198 195 191 191 189 191 193 192 194 193 202 221 230 235 235 231 227 223 219 202 187 187 198 199 194 201 232 245 251 252 253 259 253
256 267 276 255 196 205 287 315 341 48 168 211 180 143 139 160 183 164 198 227 242 238 176 160 161 161 157 158 169 176 181 187 192 195 194 192 191 188 187 188 189 188 189 192 193 196 201 201 201 203 202 204 207 203 201 204 204 205 203 202 201 199 201 200 201 201 196 196 196 199 201 201 203 202 211 228 238 242 239 230 222 222 219 212 215 217 220 234 238 242 260 264 267 262 257 259 262
250 240 253 257 204 221 288 312 349 34 187 262 117 153 167 183 169 153 212 238 246 239 139 146 146 150 159 169 177 181 185 189 194 197 198 200 197 194 192 191 192 192 194 195 195 197 201 203 204 206 207 209 211 208 206 209 210 209 207 207 203 201 205 203 200 203 200 198 199 204 208 208 207 208 221 232 238 243 240 231 227 230 233 230 232 236 241 255 267 272 276 278 279 273 269 269 267
242 236 241 231 227 229 277 325 336 11 4 105 150 182 228 218 187 198 220 225 222 91 124 144 143 156 172 177 182 184 187 192 194 197 200 202 201 201 199 196 195 197 199 199 199 200 200 204 207 208 209 211 213 212 211 211 211 211 210 209 206 204 208 208 203 206 205 200 200 207 214 216 213 216 230 235 236 242 242 236 235 235 238 240 242 248 254 265 277 280 280 285 287 282 280 283 282
288 283 252 235 262 243 147 176 290 348 344 182 167 198 276 309 7 228 231 209 153 105 130 151 152 168 178 181 188 189 192 195 195 194 197 200 202 204 204 201 200 201 203 204 204 204 203 204 208 210 211 213 214 215 215 214 213 212 211 211 210 207 209 210 208 210 211 208 204 207 215 221 219 219 228 236 239 241 243 242 245 244 242 243 246 253 258 265 274 277 279 284 287 284 283 285 285
292 278 241 295 336 298 159 153 243 344 309 175 145 163 301 338 323 228 229 187 159 133 146 165 166 176 181 184 189 192 201 202 196 192 192 198 202 204 205 205 204 204 206 208 207 206 206 206 208 211 211 214 214 215 217 216 216 215 215 215 214 212 212 213 214 215 217 216 213 212 217 222 223 223 225 232 239 240 242 246 250 249 250 250 250 254 257 262 269 273 276 278 280 280 279 280 281
282 220 209 298 2 307 239 175 184 137 185 178 132 127 297 264 224 242 234 167 162 144 157 174 179 183 183 187 189 196 206 203 198 199 200 201 203 203 205 207 206 206 209 210 210 208 208 208 210 212 212 213 215 215 216 217 218 219 219 220 219 217 216 218 219 220 222 221 219 219 222 224 227 230 229 230 235 240 244 245 248 250 253 254 253 257 258 260 263 266 270 271 275 276 277 280 279
266 203 194 279 13 304 254 203 142 145 186 153 139 211 256 243 236 248 212 155 149 149 173 182 185 189 187 190 194 204 207 202 203 206 206 204 204 205 206 207 207 207 209 209 211 211 211 210 211 213 214 215 216 217 218 219 219 220 222 223 223 222 220 221 222 224 226 224 223 224 226 228 230 234 236 235 234 240 245 244 246 248 253 257 255 256 257 259 260 262 266 270 273 273 275 278 277
253 227 202 210 145 267 281 243 149 161 203 84 128 218 251 255 249 243 191 167 162 172 190 190 190 194 192 196 199 208 210 207 210 210 208 208 207 207 207 207 207 208 208 208 211 213 212 212 212 214 215 217 217 218 220 221 221 221 222 223 223 224 223 224 225 226 228 228 227 227 228 231 233 235 239 241 239 239 243 245 246 245 250 257 256 257 262 264 263 264 267 269 272 271 273 275 274
258 213 253 301 166 253 301 259 165 170 212 84 138 218 266 265 265 261 202 181 179 184 195 195 196 199 196 202 204 211 219 216 218 217 214 212 210 209 209 208 207 209 210 210 212 213 213 213 213 214 214 217 218 219 221 222 223 223 223 223 225 226 226 227 228 229 231 231 230 231 233 234 236 237 238 244 246 243 243 245 247 247 245 247 254 259 263 268 269 270 275 277 274 272 272 274 276
315 197 236 250 168 236 306 279 210 173 143 119 172 221 265 263 287 310 209 187 190 191 200 202 201 205 201 202 207 210 220 221 223 223 219 216 214 212 211 210 209 210 211 212 213 212 212 212 212 213 214 216 218 219 221 221 223 224 224 225 226 228 229 231 232 233 234 234 234 236 237 237 239 240 239 243 247 247 248 249 250 249 244 244 252 257 260 268 268 268 276 280 275 272 272 276 282
293 306 227 228 180 196 255 274 261 159 145 201 200 220 247 260 298 328 275 185 196 202 205 208 207 211 210 206 210 211 213 217 220 220 219 217 216 215 214 213 211 211 213 213 214 214 213 212 212 213 214 216 217 218 219 220 222 224 225 226 227 229 232 234 235 236 237 237 238 239 240 240 241 243 242 241 243 246 249 253 255 254 250 249 251 256 262 266 262 263 271 273 271 271 274 278 284
206 199 200 240 235 209 225 250 221 157 155 210 194 224 251 262 279 296 296 191 198 221 217 215 216 214 218 213 212 214 213 221 223 218 216 216 216 216 216 215 214 213 214 215 215 215 214 213 212 213 214 215 216 217 218 219 221 222 223 225 227 229 231 233 235 236 238 239 240 241 241 242 242 243 243 242 245 246 245 250 255 257 258 258 258 259 263 262 259 263 268 270 271 272 273 277 281
188 197 189 201 219 237 228 242 241 173 161 218 204 219 243 251 260 262 277 224 200 242 250 236 228 220 222 219 219 219 215 226 227 219 215 215 215 216 217 216 216 214 215 216 216 215 215 214 212 212 213 214 214 215 216 217 217 218 219 220 223 225 228 230 233 236 238 240 242 242 243 243 243 243 244 244 245 246 247 249 252 256 259 257 258 259 259 261 261 262 266 272 274 271 271 273 276
219 249 241 219 210 243 243 246 285 171 159 232 216 221 245 247 256 255 255 252 236 248 249 241 234 227 223 221 224 221 219 231 231 221 216 215 215 216 216 216 216 216 215 216 216 216 215 215 213 212 212 213 213 213 213 214 213 213 214 216 220 223 225 229 232 235 237 239 241 243 244 244 245 245 245 245 245 246 249 252 252 254 256 254 257 260 261 264 262 260 265 274 274 270 271 274 273
269 269 274 264 220 237 258 251 298 101 164 250 239 225 254 254 253 260 226 183 240 234 229 235 231 231 231 225 228 225 228 241 232 222 219 216 214 214 214 214 214 215 215 215 215 216 215 214 214 213 213 212 213 215 215 215 215 215 216 218 221 224 227 229 232 233 235 237 239 242 244 244 245 246 247 248 249 250 251 252 253 254 257 256 258 262 265 268 266 263 267 274 276 273 272 273 272
244 257 274 271 244 243 278 269 285 27 168 257 291 210 252 259 253 261 232 208 239 232 220 224 220 225 232 226 228 227 234 241 229 227 223 215 213 211 211 213 214 215 216 215 216 216 214 213 213 214 214 213 215 216 216 217 219 220 221 223 224 227 229 231 233 235 235 236 238 240 242 243 244 245 247 249 251 254 255 256 255 254 255 256 259 262 264 267 265 264 268 275 277 272 268 271 270
225 210 212 260 261 196 254 257 227 64 140 196 115 251 266 269 272 271 238 221 241 242 229 232 223 224 231 227 223 217 221 227 226 231 226 215 213 210 209 211 213 214 215 215 215 215 214 214 214 214 214 216 217 218 219 220 221 221 223 226 228 229 229 231 234 236 236 236 238 238 240 242 243 244 246 247 250 253 256 258 257 257 259 261 262 258 257 260 257 258 268 277 276 265 263 271 272
239 211 207 238 223 203 226 207 135 24 1 112 97 350 298 258 261 264 248 229 245 248 239 248 245 235 240 245 238 224 218 218 216 221 221 210 209 210 211 212 212 212 213 215 215 214 214 214 215 216 216 216 218 219 220 220 219 218 218 220 224 226 228 230 231 231 231 233 235 236 237 239 242 244 245 245 248 251 254 257 258 258 257 256 260 260 259 259 257 258 268 277 276 267 266 272 274
254 228 213 219 207 199 181 132 92 47 323 286 144 306 292 291 263 252 267 299 262 245 226 240 245 241 242 247 242 233 228 227 220 222 218 208 208 210 212 212 211 212 214 215 216 216 215 215 216 216 216 217 218 220 220 218 217 215 213 212 214 217 221 224 225 227 227 228 231 232 234 238 241 243 243 245 246 248 253 257 258 258 252 248 260 272 272 268 262 259 263 271 276 275 271 268 271
247 240 211 205 176 143 142 152 121 120 232 287 94 173 254 316 299 257 288 308 273 267 246 245 244 242 237 233 236 231 229 235 232 236 229 214 211 209 210 212 210 213 216 217 217 217 217 217 217 217 217 217 218 219 219 217 216 215 214 214 215 215 218 222 224 227 228 229 230 230 232 236 239 240 241 242 240 242 249 256 259 263 262 261 268 277 280 280 271 259 255 262 275 280 272 265 269
229 241 180 160 150 154 166 165 154 187 217 335 24 134 222 293 275 269 312 305 286 288 266 255 245 241 238 234 238 231 224 225 223 227 225 216 213 210 210 211 211 214 216 216 216 217 218 218 219 218 218 218 218 217 217 217 216 216 216 217 218 219 221 224 224 227 230 231 230 229 230 230 229 231 234 235 236 239 243 247 249 251 253 256 256 261 272 277 273 260 255 271 293 296 283 271 271
233 209 154 148 152 157 158 150 138 25 95 300 309 121 190 269 276 299 337 304 293 286 262 256 246 238 237 236 236 232 229 226 221 223 221 217 214 213 213 213 213 215 215 216 217 218 219 219 220 220 219 219 218 218 218 218 218 219 218 218 219 221 223 224 226 228 228 226 223 219 218 218 219 222 228 234 237 234 231 229 229 229 234 240 238 243 257 256 255 276 294 302 302 303 298 284 276
215 149 114 83 82 88 100 122 112 51 80 243 256 206 191 270 282 303 337 296 271 270 267 262 250 241 239 241 241 237 238 234 230 233 231 226 221 218 217 216 216 215 214 217 218 218 218 218 218 219 220 220 219 219 219 219 219 219 220 219 219 219 219 221 222 221 215 210 207 205 207 211 214 217 220 225 227 223 220 223 226 230 236 245 247 248 262 273 281 296 302 298 292 299 313 305 295
137 107 83 60 44 48 51 65 89 86 269 251 244 219 190 264 280 252 227 230 226 241 273 278 272 269 256 251 249 241 236 231 225 225 229 228 223 221 221 221 220 217 216 218 218 218 218 218 217 218 220 220 219 219 219 219 219 219 220 220 219 217 216 215 213 206 201 200 200 202 206 210 212 214 213 213 217 224 231 239 246 247 245 246 249 252 260 271 278 285 288 284 281 291 303 308 316
127 96 100 89 7 16 30 1 43 190 255 261 249 206 169 224 263 246 236 248 229 218 249 266 275 283 273 260 255 243 228 218 207 203 213 211 202 208 213 218 222 220 220 220 219 219 218 218 218 217 218 218 218 218 217 218 218 218 220 220 218 218 216 213 208 202 200 200 203 205 205 207 207 208 210 213 220 227 234 243 247 247 246 245 249 253 258 264 269 273 277 276 278 286 294 302 311
129 115 122 128 334 23 190 282 283 222 249 260 246 198 192 231 250 255 257 262 252 226 220 242 260 275 276 264 254 245 222 205 196 198 210 210 204 207 209 213 216 217 219 220 220 219 218 218 218 217 217 217 216 217 216 216 217 217 217 217 217 217 215 211 207 205 205 206 208 207 204 205 207 211 218 222 223 223 223 224 218 216 226 233 240 245 246 249 248 245 258 276 280 282 290 303 310
151 143 143 151 141 120 208 243 273 256 260 271 258 241 258 268 258 250 245 251 259 243 220 234 243 255 265 257 241 237 227 215 210 212 215 218 217 214 213 215 216 216 217 217 217 216 216 216 215 216 217 216 215 215 215 215 215 216 216 216 216 215 211 209 209 209 209 209 209 208 207 210 215 219 220 214 206 208 209 201 183 157 154 156 154 171 174 174 159 129 108 337 328 308 292 287 288
180 163 143 158 166 161 197 214 210 238 267 279 267 238 203 198 248 248 237 254 279 283 254 252 251 257 269 270 251 234 235 236 230 230 230 229 224 215 214 216 216 218 218 216 215 214 212 212 212 212 212 211 211 211 211 212 212 212 213 214 214 212 209 207 208 210 209 206 204 204 205 207 207 204 200 195 195 205 209 196 183 171 157 129 104 102 111 113 112 110 138 197 288 312 305 301 293
216 140 127 183 186 149 153 189 185 185 231 249 223 233 213 208 276 277 255 267 282 283 295 304 284 283 291 250 241 230 238 246 232 229 236 238 232 224 220 219 219 219 218 217 216 213 212 211 210 210 209 208 206 205 206 206 206 206 206 207 206 204 204 203 202 202 202 202 200 199 198 195 192 188 187 191 193 198 200 192 187 186 183 171 146 134 122 112 102 87 88 94 82 65 54 40 30
190 122 177 213 155 116 123 200 149 105 197 250 200 251 284 318 297 290 293 286 282 284 290 280 269 286 279 233 234 233 239 241 232 227 229 231 226 224 225 223 222 221 219 219 218 215 214 212 209 207 205 204 202 201 200 199 200 199 198 199 199 199 199 198 197 196 196 197 196 194 191 185 184 186 185 186 186 187 192 194 192 186 182 179 169 159 141 118 103 85 80 77 70 62 58 48 32
132 170 202 188 112 96 113 168 3 58 227 271 225 227 276 315 271 309 326 292 278 273 262 252 255 263 253 242 239 238 239 245 251 243 232 220 206 207 213 216 219 221 222 222 219 216 214 211 209 204 201 198 196 196 195 194 193 192 190 191 192 193 193 193 194 194 192 191 187 185 185 182 181 185 186 187 188 187 185 183 178 172 169 170 167 157 142 128 116 101 87 78 73 67 62 59 51
147 196 198 132 156 208 135 169 206 178 229 281 292 250 252 204 218 298 301 258 258 264 254 245 246 237 234 240 242 244 247 252 251 234 223 208 188 186 190 197 206 210 214 215 211 209 207 206 204 200 197 194 191 190 188 186 187 186 183 183 183 184 186 188 189 189 187 183 180 180 182 183 183 186 188 185 181 175 166 161 155 152 148 145 141 133 126 120 110 101 93 87 83 79 76 71 64
29 102 230 81 149 180 173 170 166 170 214 254 286 285 254 222 213 219 238 241 247 258 255 240 239 233 226 227 229 232 228 225 222 212 211 204 184 182 182 186 193 196 201 202 199 198 196 194 192 189 188 185 183 184 182 180 181 180 180 180 182 184 184 186 185 183 183 181 181 182 183 185 183 180 178 172 166 158 150 144 139 136 132 127 124 119 113 108 102 96 93 90 85 81 77 70 61
160 162 188 206 101 108 157 177 135 141 179 208 252 275 257 245 211 197 218 235 242 250 249 239 242 240 233 224 219 218 210 211 214 202 197 192 185 182 179 181 183 184 188 188 189 189 186 184 184 181 180 178 177 179 180 181 181 181 183 182 183 184 183 184 182 183 184 182 183 184 182 180 173 167 164 157 150 144 139 136 132 129 126 122 119 115 108 102 97 93 89 86 82 78 71 66 58
177 185 195 195 164 120 172 226 210 130 179 185 196 254 257 245 204 197 211 225 239 246 233 238 250 247 243 232 217 211 204 205 204 190 183 182 181 179 174 172 171 172 175 175 179 181 179 179 179 178 178 177 177 179 182 185 184 183 184 180 178 179 180 181 181 183 183 181 180 178 174 169 160 154 151 146 141 137 134 132 129 126 123 120 115 111 106 101 96 92 89 85 79 73 65 58 50
Height
819 819 819 819 819 818 821 821 836 843 844 857 856 854 848 841 843 842 843 841 841 841 837 837 836 835 840 845 851 855 858 857 858 863 864 857 854 857 859 860 861 863 864 865 866 867 867 867 867 867 868 868 869 869 870 869 870 870 870 870 870 870 870 870 870 870 870 870 870 870 870 870 870 870 870 870 870 870 870 870 870 870 870 869 869 869 869 870 870 870 870 870 870 869 869 869 869
819 819 818 819 818 820 826 826 844 854 850 861 858 852 847 841 844 844 843 841 841 840 837 838 838 841 844 846 849 853 855 855 854 855 856 855 856 858 859 860 861 862 864 865 866 867 867 867 867 868 868 868 869 870 870 870 871 870 871 871 871 871 871 871 871 871 871 871 871 871 871 871 871 871 871 871 871 872 872 872 871 871 871 871 871 871 871 871 871 871 871 871 871 871 870 870 870
819 819 818 819 818 821 828 831 847 859 859 863 857 850 846 844 846 844 841 838 837 836 837 838 840 844 846 848 849 854 857 854 852 853 855 856 856 858 860 860 861 863 864 865 866 867 867 868 868 868 868 869 870 870 871 871 871 871 872 872 872 872 873 873 872 873 872 872 872 872 872 872 872 872 872 872 873 873 873 873 872 872 872 872 872 872 872 872 872 872 872 873 872 872 872 872 872
819 819 818 818 822 827 833 839 849 857 861 864 858 849 845 845 846 844 840 836 835 834 836 838 842 845 844 850 851 855 858 854 853 853 855 856 856 857 859 860 862 863 864 865 866 867 868 868 868 869 869 870 871 871 872 872 872 872 873 873 873 874 874 874 874 874 874 873 873 873 873 874 874 874 874 874 874 874 874 874 874 874 874 874 874 874 874 874 874 874 874 874 874 873 873 873 873
819 820 819 818 827 833 837 846 852 855 856 857 855 850 845 844 844 844 840 837 835 833 835 838 847 847 845 850 852 856 857 854 853 852 854 856 856 858 859 860 862 863 864 865 866 867 868 868 869 869 870 871 871 872 873 873 873 873 874 874 874 875 875 875 875 875 875 875 875 875 875 875 875 875 875 875 875 875 875 875 875 875 875 875 875 875 875 875 875 875 875 875 875 875 875 875 875
819 820 819 818 827 832 841 850 852 853 847 845 849 847 845 842 842 842 840 838 834 834 835 839 846 849 851 852 851 853 854 853 853 852 854 855 857 859 860 861 862 863 864 865 867 867 868 869 869 869 870 871 872 873 873 874 874 874 874 874 875 875 876 876 876 876 876 876 876 876 876 877 876 876 876 876 877 876 876 876 876 876 876 876 876 876 876 876 876 876 876 876 876 876 876 876 876
819 821 823 825 831 834 847 854 852 852 842 840 843 841 842 840 841 840 839 838 837 836 836 840 843 847 856 854 853 853 851 852 852 852 854 855 858 859 861 861 862 864 865 866 867 867 868 869 869 870 870 871 872 873 874 874 874 875 875 875 875 876 876 876 876 877 877 877 877 877 877 877 877 877 877 878 878 878 877 877 877 877 877 877 877 877 877 877 877 877 877 877 878 877 878 877 878
820 824 827 832 840 843 852 854 851 850 841 838 838 837 838 838 839 838 838 838 839 840 839 843 841 848 857 854 856 855 851 853 852 853 854 856 858 860 861 862 863 864 865 866 867 868 868 869 869 870 870 871 872 873 874 875 875 875 876 876 876 877 877 877 877 878 878 878 878 878 878 878 878 878 878 879 879 878 878 878 878 878 878 878 878 878 878 878 878 878 878 878 879 879 879 879 879
820 825 831 837 846 850 855 855 851 848 841 839 838 837 837 837 837 836 838 839 838 840 841 842 839 848 857 856 858 855 851 853 853 854 855 857 858 860 862 862 863 864 865 866 867 868 868 869 869 870 871 871 872 873 874 875 876 876 876 876 877 877 877 878 878 878 878 879 879 879 879 879 879 879 879 879 879 879 879 879 879 879 879 879 879 879 879 879 879 879 879 879 879 880 880 880 880
823 827 834 841 849 856 857 855 850 846 840 838 838 836 835 837 837 835 837 838 838 839 842 841 841 849 856 859 860 854 853 853 853 855 856 857 858 860 862 863 864 864 866 867 868 868 869 870 870 871 871 872 872 873 874 875 876 876 877 877 877 878 878 878 878 879 879 879 880 880 880 880 880 880 880 880 880 879 879 879 879 880 880 880 880 880 880 880 880 880 880 880 880 881 881 881 881
830 832 834 845 854 857 857 853 848 845 840 838 838 835 835 835 836 837 837 838 838 839 841 840 846 853 857 861 859 853 853 853 853 855 856 858 859 860 861 863 865 865 866 867 868 869 869 870 871 872 872 872 873 873 875 875 876 877 877 878 878 878 878 879 879 879 879 880 880 880 881 880 881 881 881 880 880 880 880 880 880 880 880 880 881 881 881 881 881 880 880 881 881 882 882 882 882
834 839 837 849 855 854 856 852 846 844 842 840 839 835 835 835 835 838 837 838 838 839 840 839 845 850 858 863 858 854 853 854 854 854 856 857 859 860 861 863 865 866 867 868 869 869 870 871 871 872 873 873 873 874 875 875 876 876 877 878 878 878 878 879 879 879 880 880 881 881 881 881 881 881 881 881 881 881 881 881 881 881 881 881 881 881 882 882 882 881 881 882 882 882 883 883 883
835 842 841 849 854 853 854 852 847 847 846 840 837 834 834 835 834 835 836 838 838 840 839 836 841 845 858 864 857 855 854 853 854 855 857 857 859 860 862 863 864 866 867 868 869 870 870 871 872 872 873 873 874 875 875 876 876 877 877 878 878 878 879 879 879 879 880 880 881 881 881 881 882 882 882 882 882 882 882 882 881 882 882 882 882 882 882 882 882 882 882 882 883 883 883 884 884
834 839 841 849 855 852 850 851 851 851 846 837 834 832 833 834 832 833 834 839 839 838 837 835 838 844 857 864 860 857 853 853 854 855 857 857 859 860 862 863 864 866 867 868 869 870 870 871 872 872 873 874 874 875 876 876 876 877 877 878 878 879 879 879 879 879 880 880 881 881 882 882 882 883 883 883 883 883 883 883 882 883 883 883 883 883 883 883 883 883 883 883 883 884 884 884 884
833 837 841 849 853 851 848 847 849 851 844 835 833 832 833 832 832 833 832 836 839 835 834 836 837 841 851 856 856 853 850 852 853 855 856 857 859 860 862 863 865 866 867 868 868 869 870 871 872 872 873 874 874 875 876 877 877 877 878 878 878 879 879 879 880 880 880 881 881 882 882 882 883 883 883 884 884 884 884 884 884 884 883 883 883 883 883 883 883 883 884 884 884 884 885 885 885
831 835 843 850 854 853 847 845 850 854 843 833 833 830 833 833 832 834 830 830 835 834 835 838 838 839 843 843 841 843 847 850 852 854 855 857 859 860 862 863 865 866 867 868 868 869 870 871 871 872 873 873 874 875 876 876 877 878 878 878 878 879 879 879 880 880 880 881 881 882 882 883 883 884 884 884 884 885 885 885 885 885 885 884 884 884 884 884 884 884 884 885 885 885 885 885 885
830 836 847 853 855 853 844 843 848 846 837 833 833 830 833 836 832 832 829 828 833 837 837 840 840 838 839 837 835 839 846 849 851 853 854 856 858 860 862 862 864 865 866 867 868 869 869 871 871 872 873 873 874 874 875 876 877 878 878 878 879 879 879 879 880 880 880 881 881 882 882 883 883 884 884 885 885 885 885 885 886 885 885 885 885 885 885 885 885 885 885 885 885 885 885 885 886
834 843 851 852 854 848 838 837 838 834 831 831 831 831 832 834 834 831 831 833 836 838 840 841 840 839 838 837 836 840 845 848 850 851 852 855 857 859 860 861 862 864 865 866 867 868 869 870 870 872 872 873 874 874 875 875 876 877 878 878 878 879 879 879 880 880 880 880 881 881 882 882 883 884 884 885 885 885 886 886 886 886 886 886 886 886 886 886 885 886 886 886 886 886 886 885 886
837 846 852 849 847 839 831 832 832 830 828 827 830 831 831 831 832 830 833 839 837 838 843 845 843 841 840 839 840 842 845 847 848 849 850 852 854 856 858 859 861 862 863 864 866 867 868 869 870 871 871 872 873 874 874 875 875 876 877 877 878 878 879 879 880 880 880 880 881 881 882 882 883 883 884 884 885 885 886 886 886 886 886 886 887 886 886 886 886 886 886 886 886 886 886 886 886
838 845 849 844 838 834 829 831 829 826 825 825 829 830 830 830 830 830 833 839 838 836 840 843 844 845 843 841 842 843 845 847 848 849 850 851 852 853 854 856 858 859 860 862 864 866 867 868 869 870 871 872 872 873 874 874 875 875 876 877 877 878 878 879 879 880 880 880 881 881 882 882 883 883 883 884 884 885 885 886 886 886 886 886 887 887 887 887 886 886 886 887 886 887 886 886 886
839 841 844 837 834 833 828 828 827 825 826 825 826 830 831 829 829 831 833 840 840 835 833 833 837 842 843 842 843 843 845 847 849 850 850 851 851 852 853 854 855 857 859 861 863 864 866 867 868 869 870 871 872 872 873 874 874 875 875 876 876 877 878 878 879 879 880 880 880 881 881 882 882 883 883 884 884 884 885 885 885 886 886 886 886 886 887 887 887 887 887 887 887 887 887 887 887
840 838 836 833 833 834 826 825 827 825 826 826 827 828 828 828 830 831 832 835 834 828 827 827 830 835 837 839 841 843 845 846 848 849 849 850 850 851 853 854 856 857 859 860 861 862 864 866 867 868 869 870 871 872 872 873 874 874 875 875 876 876 877 877 878 879 879 880 880 880 881 881 882 882 883 883 884 884 884 885 885 885 885 886 886 886 886 887 887 887 887 887 887 887 887 887 887
842 838 832 832 832 832 826 825 826 825 827 827 826 824 825 829 830 830 830 827 824 822 823 826 828 831 832 835 839 841 843 844 845 846 847 848 848 849 851 852 854 856 857 858 859 861 863 864 866 867 868 869 870 871 872 872 873 873 874 875 875 875 876 877 877 878 878 879 879 880 880 880 881 881 882 883 883 884 884 884 885 885 885 885 885 886 886 886 886 887 887 887 887 887 887 887 887
843 840 832 831 831 830 827 826 826 825 826 826 824 823 825 828 828 830 829 823 822 822 822 825 827 830 833 836 838 839 840 841 842 843 844 845 846 847 849 850 852 854 855 856 858 859 861 863 864 866 866 867 869 870 871 872 872 873 873 874 874 875 876 876 876 877 878 878 878 879 879 880 880 881 881 882 883 883 883 884 884 884 885 885 885 885 886 886 886 886 887 887 887 887 887 887 887
841 839 832 830 829 828 827 826 826 825 826 827 826 825 825 826 827 829 827 822 822 823 823 825 828 832 835 836 837 838 839 840 841 842 844 845 847 848 849 849 851 852 853 854 856 858 859 861 863 864 865 866 867 869 869 870 871 872 873 873 874 875 875 875 876 877 877 877 878 878 879 879 880 880 881 881 882 882 883 883 884 884 884 885 885 885 885 885 886 886 886 886 887 887 886 887 886
837 835 831 829 828 826 827 826 825 826 826 828 828 827 827 827 828 827 822 822 823 823 824 825 828 832 834 835 836 837 838 839 840 841 842 844 847 848 848 848 849 850 851 853 854 856 858 860 861 862 864 865 866 867 868 869 870 871 871 872 873 873 874 875 876 876 877 877 878 878 878 879 879 880 880 881 881 882 882 883 883 883 884 884 884 884 885 885 885 885 886 886 886 886 886 886 886
835 835 832 829 828 826 827 826 826 827 827 828 828 829 829 827 830 827 820 822 824 824 826 827 828 831 832 834 835 835 837 837 837 839 841 844 845 845 846 847 847 848 849 851 852 854 856 858 859 861 862 864 865 865 866 867 868 869 870 871 872 872 873 874 875 875 876 876 877 878 878 878 879 879 880 880 881 881 882 882 882 882 883 883 884 884 884 885 885 885 885 885 885 885 885 885 885
835 835 833 830 829 828 827 826 827 827 827 827 827 829 830 829 829 824 819 822 824 824 827 828 828 829 831 832 833 835 835 835 837 839 839 840 841 842 843 843 844 846 847 849 851 853 855 856 858 859 861 862 863 864 865 866 867 868 869 870 870 871 872 873 873 874 874 875 876 877 877 878 878 879 879 880 880 881 881 881 882 882 882 883 883 884 884 884 885 885 885 885 885 885 884 884 884
835 835 836 833 830 830 828 826 827 827 828 826 827 834 834 830 826 820 819 823 825 825 827 828 828 829 830 831 832 833 833 835 837 837 836 836 836 838 839 840 842 844 845 847 850 852 853 854 856 858 859 860 861 862 863 864 865 866 867 868 869 870 871 871 871 872 873 874 875 876 877 877 878 878 879 879 880 880 880 881 881 881 882 882 883 883 884 884 884 884 885 885 884 884 884 883 883
836 834 835 835 836 833 827 826 827 827 828 825 829 840 837 827 821 818 821 824 825 827 827 828 828 829 830 831 832 832 832 833 833 832 832 833 835 836 836 838 840 841 843 846 848 849 850 853 854 856 857 858 859 861 861 862 864 865 866 867 868 869 869 870 870 871 872 873 874 875 875 876 877 877 878 878 879 879 880 880 880 881 882 882 883 883 883 884 884 884 884 884 884 883 883 883 882
836 835 835 839 842 836 827 828 828 827 829 825 829 841 835 822 819 819 822 823 823 825 826 828 828 829 830 830 831 830 830 830 829 829 830 831 832 834 835 836 838 839 841 843 844 846 848 850 852 854 855 856 858 859 860 861 862 863 864 865 866 867 868 869 869 870 870 871 872 873 874 875 876 876 877 877 878 878 879 879 879 880 881 882 882 882 883 883 883 883 883 883 883 883 882 882 881
835 840 843 845 844 836 828 827 827 826 827 826 830 840 833 821 817 818 822 823 822 823 824 827 827 828 829 829 829 829 828 828 828 829 829 830 831 831 832 833 835 837 838 840 842 844 846 848 849 851 852 854 856 857 858 860 861 862 863 864 865 866 867 867 868 869 869 870 871 872 873 874 874 875 876 877 877 877 877 878 878 879 880 881 881 882 882 882 883 883 883 883 882 882 881 881 881
839 842 846 845 843 838 832 828 827 825 826 827 830 835 830 820 818 819 822 823 822 822 823 825 825 826 827 827 828 827 828 828 828 827 827 827 828 829 830 831 832 834 836 837 839 841 842 844 846 848 850 851 853 855 857 858 860 861 862 863 864 865 866 866 867 868 868 869 870 870 871 872 873 874 875 876 876 876 877 877 878 878 879 880 880 880 880 881 882 881 881 881 881 880 880 880 880
847 845 844 843 841 840 836 830 827 827 827 828 829 832 827 818 818 821 822 823 823 822 821 823 824 824 824 825 825 826 826 826 824 822 822 824 825 827 828 829 831 832 834 836 837 838 840 842 844 845 847 849 851 853 855 856 858 859 861 862 863 863 864 865 866 866 867 868 868 869 870 871 872 872 873 874 875 875 876 876 877 878 878 878 879 879 879 880 880 880 880 879 879 879 879 879 878
848 845 843 843 840 839 839 830 825 827 829 829 831 833 828 819 819 820 821 824 824 821 820 821 822 822 822 823 823 823 823 822 818 817 818 821 823 825 826 827 829 831 832 834 835 836 838 839 841 843 845 847 849 851 853 855 856 858 859 860 861 861 862 863 864 864 865 866 866 867 868 869 870 871 872 873 873 874 874 875 876 876 877 877 877 877 878 878 878 878 878 877 877 877 877 877 876
840 839 839 839 837 837 835 827 824 826 829 832 832 832 827 820 819 819 819 822 823 822 821 821 821 821 821 821 820 820 820 817 813 814 816 818 820 822 824 825 826 828 830 831 833 835 836 837 839 840 842 844 846 849 850 852 854 855 856 857 857 858 859 860 861 862 863 864 865 866 866 867 868 869 870 871 872 872 873 873 874 875 875 875 875 875 876 876 876 876 876 876 876 875 875 875 875
837 838 838 837 837 835 829 826 826 825 828 831 829 830 826 822 820 817 819 822 821 821 820 819 819 819 819 819 818 817 816 813 811 813 815 815 817 819 821 823 824 826 827 829 831 832 832 834 835 837 839 841 843 845 846 848 850 851 852 853 853 854 856 857 858 859 860 861 863 864 864 865 866 867 868 869 870 870 871 872 872 873 873 874 873 873 874 874 874 874 874 875 874 873 873 873 873
839 839 839 839 840 835 828 828 829 827 829 829 830 832 828 824 820 817 820 822 818 816 816 816 816 816 816 815 815 814 813 811 811 812 812 814 815 816 818 820 821 822 824 826 827 828 830 831 832 834 836 838 840 841 843 844 845 847 848 849 850 852 853 854 855 856 858 859 861 861 862 863 864 865 866 867 868 868 869 870 870 871 871 872 872 871 872 872 872 872 873 873 872 871 871 871 872
840 841 842 840 839 836 831 830 830 829 829 829 831 833 827 822 820 818 821 819 814 812 812 812 812 812 813 812 811 812 812 810 810 810 810 811 812 813 815 816 817 818 820 822 824 825 827 828 829 831 833 835 836 838 839 840 842 844 845 847 848 850 851 852 853 855 856 857 858 859 860 861 862 863 864 865 866 866 867 867 868 869 869 869 869 869 869 869 870 871 871 871 870 869 869 869 870
839 840 841 840 838 837 833 830 831 830 831 831 832 832 826 821 819 816 816 815 811 809 810 810 810 809 806 806 807 808 808 808 808 807 807 808 810 811 812 812 813 815 817 819 821 823 824 825 827 828 830 831 833 835 836 838 840 842 844 846 848 849 850 851 852 853 854 855 856 857 858 859 860 861 862 863 864 864 865 865 866 866 867 867 867 867 867 867 867 868 869 869 869 868 868 867 868
839 837 837 835 832 832 830 829 831 831 833 832 832 834 826 818 819 812 808 812 811 809 810 809 808 806 804 804 805 804 803 803 804 804 804 805 806 807 807 808 810 812 813 815 817 819 820 822 824 825 827 828 830 832 833 836 838 841 843 845 847 848 848 849 850 850 850 852 853 854 856 857 858 859 860 861 861 862 863 863 864 864 864 865 865 864 864 865 865 866 867 867 867 866 866 866 866
840 833 829 827 824 826 830 831 832 836 837 831 833 840 830 818 819 813 808 812 810 808 809 806 804 803 803 804 801 800 801 801 801 801 801 802 802 803 804 805 807 808 809 811 813 815 817 819 821 823 824 825 827 829 831 834 836 837 840 841 842 843 844 844 844 845 847 849 850 852 854 855 856 857 858 859 859 860 861 861 862 862 862 862 863 863 863 863 863 864 864 864 864 864 864 864 864
841 829 821 823 823 825 831 831 831 837 839 834 836 840 834 822 812 808 812 812 806 806 807 803 802 801 800 800 796 797 799 799 800 800 799 800 800 801 802 802 804 805 806 809 811 813 815 817 819 821 822 823 825 827 829 832 833 835 836 837 837 838 839 840 841 844 846 848 850 852 853 854 855 856 856 857 858 859 859 860 860 860 861 861 862 862 862 862 862 861 862 863 863 863 863 863 862
835 824 820 822 822 823 827 829 831 834 836 837 838 837 838 832 813 808 817 812 803 803 802 799 799 798 796 795 794 794 795 795 796 797 797 798 798 798 798 799 800 801 803 806 808 810 813 815 817 818 820 822 823 825 827 829 831 832 833 834 836 836 837 839 842 844 846 848 849 851 852 853 854 854 855 855 856 857 858 858 859 859 859 860 860 861 861 861 861 860 861 861 861 862 862 861 861
824 821 824 822 821 823 826 829 833 836 838 839 839 839 842 836 817 812 816 809 802 798 794 792 793 793 793 791 791 791 791 793 794 794 794 795 795 795 795 796 797 799 801 804 806 808 810 812 815 817 818 820 822 824 825 827 828 830 832 833 834 835 837 840 842 844 845 847 848 849 850 851 852 853 853 854 854 855 856 856 857 857 857 858 858 859 860 859 859 860 859 860 860 861 861 861 860
819 823 827 824 827 831 831 833 832 836 841 838 837 838 841 835 817 810 812 807 802 795 789 788 787 789 791 789 788 789 789 792 792 793 793 792 793 793 794 796 796 798 800 802 804 806 808 810 812 814 816 817 819 821 823 825 827 828 830 831 832 834 837 839 841 843 844 845 846 848 849 850 851 851 852 852 853 853 854 855 855 855 856 856 857 857 858 858 858 858 858 859 860 860 860 860 860
817 821 822 823 828 829 832 835 832 839 844 837 837 839 840 837 820 808 808 802 797 793 789 787 784 785 788 788 788 788 789 790 790 791 792 792 792 793 794 795 795 797 799 801 802 804 806 808 810 811 813 815 817 819 821 822 824 826 827 829 830 833 835 838 839 840 842 843 845 846 847 848 849 850 851 851 852 853 853 854 854 854 855 855 856 856 857 857 857 857 858 858 859 859 859 859 859
816 816 819 826 833 832 835 839 838 846 847 838 844 847 842 841 823 802 800 798 796 796 791 785 782 782 783 785 786 787 788 788 788 790 790 791 792 792 793 793 794 796 797 799 800 802 804 806 807 809 810 812 814 816 818 820 822 823 825 827 829 831 833 835 836 838 840 841 843 845 846 847 848 849 850 850 851 852 852 852 852 852 853 853 854 855 855 855 856 856 857 857 857 858 858 858 858
816 816 823 833 843 847 847 847 848 851 846 841 849 849 841 837 819 800 798 794 790 794 793 787 784 783 781 782 785 786 788 788 787 788 789 790 791 791 791 791 792 794 795 797 798 800 802 803 805 807 808 810 812 814 816 817 819 821 823 825 828 830 832 833 835 837 838 840 841 843 844 845 847 848 848 849 850 851 851 851 851 851 851 852 852 853 853 853 854 855 855 856 856 856 857 857 857
819 819 825 834 847 856 857 857 858 853 844 843 850 846 839 831 812 796 793 787 782 788 792 788 785 784 781 782 785 787 788 787 787 788 789 790 790 790 790 790 791 792 793 795 796 798 800 801 803 804 806 808 809 811 813 815 817 819 822 824 826 828 830 832 834 835 837 839 840 841 843 844 845 846 847 848 849 850 850 851 851 851 851 851 851 851 851 852 853 853 854 854 855 855 855 856 856
819 815 819 827 835 843 848 848 848 844 840 845 851 843 830 817 801 792 790 787 785 787 790 789 787 786 786 787 788 787 786 787 788 788 789 789 790 790 790 790 791 792 792 793 795 796 797 799 800 802 803 805 807 809 811 813 815 818 820 822 824 827 829 831 833 834 836 837 839 840 841 842 843 844 845 847 848 849 849 850 850 850 850 850 850 850 851 851 852 852 853 853 853 854 854 855 855
821 817 817 822 821 824 836 842 839 839 841 843 843 834 819 806 794 788 789 789 786 785 787 787 785 786 788 787 786 786 786 787 787 788 788 788 789 789 789 790 790 791 792 793 793 795 796 797 799 800 802 804 806 808 809 812 814 816 819 821 823 825 827 829 831 833 834 836 838 839 840 841 842 844 845 846 847 848 849 849 849 850 850 850 850 850 850 851 851 852 851 852 852 853 853 854 854
821 822 820 821 818 816 829 844 846 845 841 837 835 826 814 808 795 783 783 784 781 782 784 782 781 784 786 783 783 785 785 785 786 787 787 787 788 788 788 788 789 790 791 792 793 794 795 796 798 800 801 803 804 806 808 811 813 815 817 819 822 824 826 828 829 831 833 835 836 838 839 840 842 843 844 845 846 847 848 848 849 849 849 849 850 850 850 851 851 851 851 851 852 852 853 854 854
816 820 817 816 820 819 822 835 845 847 842 834 833 825 813 812 802 785 781 782 777 776 777 778 781 784 784 782 782 783 784 785 787 787 787 787 787 787 787 788 789 789 790 791 792 794 795 796 797 799 800 802 804 806 807 810 812 814 816 818 820 822 824 826 828 830 832 833 835 836 838 840 841 842 843 844 845 846 846 847 848 848 849 849 850 850 850 851 851 850 850 851 852 852 853 853 854
813 814 811 811 820 824 823 829 837 843 841 831 828 827 819 813 802 785 780 779 774 772 772 776 779 779 780 781 781 782 784 786 786 786 787 787 787 787 787 788 788 789 790 790 792 793 794 796 797 798 800 802 803 806 807 809 811 813 815 817 819 821 823 825 827 829 831 832 834 835 837 838 840 841 841 842 843 844 845 846 846 847 848 849 850 850 851 851 851 850 850 851 852 852 853 853 853
815 814 813 811 814 817 818 823 827 831 835 830 825 824 816 805 795 783 776 775 771 769 771 773 774 774 777 779 778 780 782 784 785 786 787 787 787 787 787 788 788 788 789 790 791 792 793 795 797 798 800 802 803 806 807 809 811 813 815 817 819 821 823 825 826 828 830 831 833 834 836 837 838 839 840 841 842 842 843 844 845 846 847 848 849 850 851 851 851 851 851 852 852 852 852 852 852
812 813 815 815 814 816 816 819 822 821 824 827 826 821 805 790 787 779 771 770 766 765 770 771 771 771 775 778 778 779 781 783 784 786 787 788 788 788 788 788 789 789 789 790 790 792 793 794 796 798 799 801 803 805 807 809 811 813 814 816 819 821 822 824 826 828 829 831 832 834 835 836 837 838 839 840 841 842 843 843 844 845 846 847 848 849 850 851 852 852 853 853 853 852 852 852 851
808 809 810 809 810 815 818 822 823 818 817 819 821 817 793 776 778 775 767 765 764 767 772 771 768 770 774 777 778 779 780 781 784 785 787 788 787 788 788 789 790 790 790 791 791 792 793 794 796 797 799 801 803 805 807 808 810 812 814 816 818 820 822 824 825 827 828 830 831 833 834 835 836 838 839 840 840 841 843 844 844 845 846 847 848 849 850 851 852 853 853 853 853 852 851 851 850